HKE675 RKPK-VHHH

Flight info

Callsign HKE675
Flight time N/A
Altitude 38000
Route OPONO3 ENGOT Y572 CJU Z82 PANSI Y711 MUGUS Y742 SALMI Q11 DRAKE A1 ELATO V522 ABBEY
Aircraft A20N/M-SDE2E3FGHIRWXY/LB1

Departure

Time 2026-05-08 05:53
Airport Gimhae International Airport (RKPK)

Arrival

Time N/A
Airport Hong Kong International Airport (VHHH)
Time Latitude Longitude Altitude Speed Heading
2026-05-08 05:26 35.17307 128.94566 18 ft 0 kts 114°
2026-05-08 05:44 35.17312 128.94552 19 ft 3 kts 114°
2026-05-08 05:44 35.17320 128.94530 19 ft 3 kts 117°
2026-05-08 05:45 35.17330 128.94508 19 ft 3 kts 120°
2026-05-08 05:45 35.17340 128.94487 17 ft 3 kts 126°
2026-05-08 05:45 35.17353 128.94468 21 ft 3 kts 142°
2026-05-08 05:45 35.17367 128.94458 18 ft 1 kts 172°
2026-05-08 05:46 35.17369 128.94457 20 ft 1 kts 173°
2026-05-08 05:48 35.17366 128.94457 18 ft 2 kts 173°
2026-05-08 05:48 35.17340 128.94461 17 ft 4 kts 174°
2026-05-08 05:48 35.17317 128.94464 19 ft 1 kts 173°
2026-05-08 05:48 35.17291 128.94468 17 ft 8 kts 174°
2026-05-08 05:49 35.17210 128.94478 17 ft 16 kts 173°
2026-05-08 05:49 35.17072 128.94496 17 ft 21 kts 174°
2026-05-08 05:49 35.16992 128.94427 18 ft 16 kts 270°
2026-05-08 05:49 35.16990 128.94299 17 ft 14 kts 284°
2026-05-08 05:50 35.16976 128.94232 16 ft 8 kts 260°
2026-05-08 05:50 35.16972 128.94190 16 ft 0 kts 264°
2026-05-08 05:51 35.16970 128.94167 16 ft 6 kts 263°
2026-05-08 05:51 35.16962 128.94076 15 ft 15 kts 264°
2026-05-08 05:51 35.16997 128.94012 17 ft 6 kts 50°
2026-05-08 05:52 35.17037 128.94050 15 ft 9 kts 356°
2026-05-08 05:52 35.17061 128.94045 15 ft 0 kts 353°
2026-05-08 05:52 35.17143 128.94035 16 ft 40 kts 354°
2026-05-08 05:53 35.17678 128.93966 17 ft 111 kts 353°
2026-05-08 05:53 35.18634 128.93851 41 ft 162 kts 353°
2026-05-08 05:53 35.19782 128.93735 630 ft 164 kts 349°
2026-05-08 05:53 35.20801 128.93340 1603 ft 149 kts 324°
2026-05-08 05:54 35.21530 128.92460 2309 ft 153 kts 305°
2026-05-08 05:54 35.22144 128.91319 2693 ft 176 kts 302°
2026-05-08 05:54 35.22822 128.89909 3059 ft 201 kts 300°
2026-05-08 05:54 35.23539 128.88342 3653 ft 215 kts 301°
2026-05-08 05:55 35.24281 128.86759 4501 ft 218 kts 301°
2026-05-08 05:55 35.25050 128.85124 5134 ft 227 kts 300°
2026-05-08 05:55 35.25841 128.83429 4999 ft 229 kts 300°
2026-05-08 05:55 35.26602 128.81792 5004 ft 217 kts 300°
2026-05-08 05:56 35.27332 128.80207 5001 ft 217 kts 300°
2026-05-08 05:56 35.28087 128.78568 4989 ft 221 kts 300°
2026-05-08 05:56 35.28835 128.76942 4997 ft 219 kts 300°
2026-05-08 05:56 35.29577 128.75295 4993 ft 223 kts 295°
2026-05-08 05:57 35.29854 128.73450 5000 ft 228 kts 269°
2026-05-08 05:57 35.29347 128.71589 5001 ft 238 kts 242°
2026-05-08 05:57 35.28167 128.70112 5001 ft 251 kts 228°
2026-05-08 05:57 35.26808 128.68626 5451 ft 268 kts 227°
2026-05-08 05:58 35.25422 128.67105 6481 ft 267 kts 228°
2026-05-08 05:58 35.24023 128.65566 7375 ft 273 kts 229°
2026-05-08 05:58 35.22595 128.63984 8176 ft 279 kts 229°
2026-05-08 05:58 35.21152 128.62388 9077 ft 282 kts 230°
2026-05-08 05:59 35.19711 128.60795 9939 ft 287 kts 231°
2026-05-08 05:59 35.18206 128.59122 10510 ft 300 kts 231°
2026-05-08 05:59 35.16593 128.57317 10821 ft 321 kts 231°
2026-05-08 05:59 35.14959 128.55492 11171 ft 337 kts 230°
2026-05-08 06:00 35.12944 128.53726 12012 ft 352 kts 214°
2026-05-08 06:00 35.10684 128.52776 12774 ft 368 kts 197°
2026-05-08 06:00 35.07999 128.52478 13559 ft 377 kts 191°
2026-05-08 06:00 35.05364 128.52246 14257 ft 380 kts 192°
2026-05-08 06:01 35.02807 128.52002 14956 ft 380 kts 192°
2026-05-08 06:01 35.00096 128.51734 15678 ft 382 kts 193°
2026-05-08 06:01 34.97420 128.51463 16377 ft 384 kts 193°
2026-05-08 06:01 34.94749 128.51192 17064 ft 387 kts 194°
2026-05-08 06:02 34.92072 128.50920 17726 ft 390 kts 194°
2026-05-08 06:02 34.89365 128.50646 18379 ft 392 kts 195°
2026-05-08 06:02 34.86621 128.50370 18998 ft 393 kts 195°
2026-05-08 06:02 34.83917 128.50067 19626 ft 388 kts 200°
2026-05-08 06:03 34.81411 128.49134 20181 ft 368 kts 217°
2026-05-08 06:03 34.79343 128.47478 20781 ft 351 kts 231°
2026-05-08 06:03 34.77766 128.45399 21388 ft 342 kts 238°
2026-05-08 06:03 34.76174 128.43131 22035 ft 343 kts 237°
2026-05-08 06:04 34.74600 128.40931 22631 ft 345 kts 237°
2026-05-08 06:04 34.73020 128.38737 23223 ft 346 kts 237°
2026-05-08 06:04 34.71431 128.36532 23770 ft 347 kts 237°
2026-05-08 06:04 34.69863 128.34355 24235 ft 348 kts 237°
2026-05-08 06:05 34.68257 128.32124 24703 ft 349 kts 237°
2026-05-08 06:05 34.66640 128.29879 25162 ft 350 kts 236°
2026-05-08 06:05 34.65048 128.27669 25589 ft 352 kts 236°
2026-05-08 06:05 34.63452 128.25457 26078 ft 351 kts 237°
2026-05-08 06:06 34.61811 128.23182 26494 ft 354 kts 236°
2026-05-08 06:06 34.60192 128.20936 26857 ft 356 kts 236°
2026-05-08 06:06 34.58555 128.18668 27279 ft 357 kts 236°
2026-05-08 06:06 34.56946 128.16441 27666 ft 358 kts 236°
2026-05-08 06:07 34.55278 128.14136 28049 ft 360 kts 236°
2026-05-08 06:07 34.53616 128.11842 28419 ft 361 kts 236°
2026-05-08 06:07 34.51948 128.09541 28769 ft 363 kts 236°
2026-05-08 06:07 34.50280 128.07242 29104 ft 364 kts 236°
2026-05-08 06:08 34.48604 128.04933 29444 ft 366 kts 235°
2026-05-08 06:08 34.46919 128.02615 29765 ft 368 kts 235°
2026-05-08 06:08 34.45231 128.00292 30092 ft 369 kts 235°
2026-05-08 06:08 34.43545 127.97975 30348 ft 371 kts 235°
2026-05-08 06:09 34.41827 127.95614 30586 ft 374 kts 235°
2026-05-08 06:09 34.40106 127.93251 30832 ft 376 kts 235°
2026-05-08 06:09 34.38347 127.90838 31085 ft 378 kts 235°
2026-05-08 06:09 34.36662 127.88528 31383 ft 378 kts 235°
2026-05-08 06:10 34.34877 127.86085 31735 ft 378 kts 235°
2026-05-08 06:10 34.33134 127.83701 32035 ft 378 kts 236°
2026-05-08 06:10 34.31411 127.81343 32336 ft 378 kts 236°
2026-05-08 06:10 34.29699 127.79003 32641 ft 378 kts 236°
2026-05-08 06:11 34.27975 127.76647 32932 ft 378 kts 236°
2026-05-08 06:11 34.26168 127.74180 33225 ft 378 kts 236°
2026-05-08 06:11 34.24458 127.71845 33505 ft 378 kts 236°
2026-05-08 06:11 34.22676 127.69417 33786 ft 378 kts 236°
2026-05-08 06:12 34.20946 127.67062 34057 ft 377 kts 236°
2026-05-08 06:12 34.19201 127.64686 34282 ft 377 kts 236°
2026-05-08 06:12 34.17445 127.62298 34509 ft 377 kts 236°
2026-05-08 06:12 34.15724 127.59958 34739 ft 377 kts 236°
2026-05-08 06:13 34.13977 127.57586 34954 ft 377 kts 236°
2026-05-08 06:13 34.12317 127.55332 35144 ft 377 kts 236°
2026-05-08 06:13 34.10527 127.52904 35358 ft 376 kts 236°
2026-05-08 06:13 34.08803 127.50567 35557 ft 376 kts 236°
2026-05-08 06:14 34.07068 127.48216 35753 ft 376 kts 236°
2026-05-08 06:14 34.05380 127.45931 35942 ft 376 kts 236°
2026-05-08 06:14 34.03603 127.43527 36124 ft 376 kts 236°
2026-05-08 06:14 34.01845 127.41149 36284 ft 376 kts 236°
2026-05-08 06:15 34.00106 127.38800 36462 ft 376 kts 236°
2026-05-08 06:15 33.98375 127.36463 36630 ft 375 kts 236°
2026-05-08 06:15 33.96635 127.34114 36803 ft 375 kts 236°
2026-05-08 06:15 33.94904 127.31781 36963 ft 375 kts 236°
2026-05-08 06:16 33.93149 127.29415 37117 ft 375 kts 236°
2026-05-08 06:16 33.91428 127.27096 37267 ft 375 kts 236°
2026-05-08 06:16 33.89688 127.24753 37425 ft 374 kts 236°
2026-05-08 06:16 33.87948 127.22413 37556 ft 374 kts 236°
2026-05-08 06:17 33.84524 127.17811 37812 ft 374 kts 236°
2026-05-08 06:17 33.82784 127.15475 37940 ft 374 kts 236°
2026-05-08 06:17 33.81048 127.13145 38056 ft 374 kts 236°
2026-05-08 06:18 33.77576 127.08492 38078 ft 373 kts 236°
2026-05-08 06:18 33.74109 127.03850 38085 ft 373 kts 236°
2026-05-08 06:19 33.70637 126.99211 38094 ft 374 kts 236°
2026-05-08 06:19 33.67160 126.94570 38092 ft 374 kts 236°
2026-05-08 06:20 33.63528 126.90092 38099 ft 379 kts 231°
2026-05-08 06:20 33.59639 126.85807 38104 ft 379 kts 231°
2026-05-08 06:21 33.55752 126.81503 38113 ft 380 kts 231°
2026-05-08 06:21 33.51880 126.77219 38113 ft 380 kts 231°
2026-05-08 06:22 33.47994 126.72925 38119 ft 381 kts 231°
2026-05-08 06:22 33.44107 126.68637 38125 ft 381 kts 231°
2026-05-08 06:23 33.40188 126.64318 38124 ft 382 kts 231°
2026-05-08 06:23 33.36311 126.60050 38126 ft 382 kts 231°
2026-05-08 06:24 33.32377 126.55715 38127 ft 383 kts 231°
2026-05-08 06:24 33.28457 126.51403 38128 ft 383 kts 231°
2026-05-08 06:25 33.24516 126.47073 38124 ft 384 kts 231°
2026-05-08 06:25 33.20578 126.42753 38121 ft 385 kts 231°
2026-05-08 06:26 33.16640 126.38439 38116 ft 385 kts 231°
2026-05-08 06:26 33.12699 126.34126 38115 ft 385 kts 231°
2026-05-08 06:27 33.09413 126.30535 38115 ft 385 kts 231°
2026-05-08 06:27 33.04823 126.25528 38112 ft 386 kts 230°
2026-05-08 06:28 33.00439 126.21601 38107 ft 397 kts 221°
2026-05-08 06:28 32.96346 126.19024 38109 ft 407 kts 214°
2026-05-08 06:29 32.91018 126.16664 38111 ft 413 kts 210°
2026-05-08 06:29 32.85553 126.14332 38106 ft 413 kts 210°
2026-05-08 06:30 32.80156 126.12019 38101 ft 413 kts 210°
2026-05-08 06:30 32.74726 126.09696 38099 ft 414 kts 210°
2026-05-08 06:31 32.69312 126.07384 38110 ft 414 kts 210°
2026-05-08 06:31 32.63954 126.05098 38114 ft 415 kts 210°
2026-05-08 06:32 32.58447 126.02752 38115 ft 416 kts 210°
2026-05-08 06:32 32.52999 126.00434 38119 ft 417 kts 210°
2026-05-08 06:33 32.47538 125.98114 38120 ft 417 kts 210°
2026-05-08 06:33 32.42076 125.95799 38121 ft 418 kts 210°
2026-05-08 06:34 32.36601 125.93482 38129 ft 419 kts 210°
2026-05-08 06:34 32.31086 125.91151 38131 ft 419 kts 210°
2026-05-08 06:35 32.25600 125.88835 38133 ft 420 kts 210°
2026-05-08 06:35 32.20099 125.86515 38132 ft 420 kts 210°
2026-05-08 06:36 32.14614 125.84206 38135 ft 421 kts 210°
2026-05-08 06:36 32.09091 125.81883 38134 ft 421 kts 210°
2026-05-08 06:37 32.03571 125.79565 38131 ft 421 kts 210°
2026-05-08 06:37 31.98055 125.77249 38129 ft 421 kts 210°
2026-05-08 06:38 31.92532 125.74925 38130 ft 421 kts 210°
2026-05-08 06:38 31.87036 125.72616 38131 ft 421 kts 210°
2026-05-08 06:39 31.81523 125.70303 38131 ft 421 kts 210°
2026-05-08 06:39 31.76002 125.67989 38127 ft 421 kts 210°
2026-05-08 06:40 31.70452 125.65667 38129 ft 421 kts 210°
2026-05-08 06:40 31.64930 125.63354 38124 ft 421 kts 210°
2026-05-08 06:41 31.59405 125.61042 38125 ft 421 kts 210°
2026-05-08 06:41 31.53876 125.58732 38125 ft 421 kts 210°
2026-05-08 06:42 31.48369 125.56429 38128 ft 421 kts 210°
2026-05-08 06:42 31.42818 125.54102 38127 ft 421 kts 210°
2026-05-08 06:43 31.37334 125.51808 38127 ft 422 kts 210°
2026-05-08 06:43 31.31810 125.49500 38122 ft 422 kts 210°
2026-05-08 06:44 31.26291 125.47198 38123 ft 422 kts 210°
2026-05-08 06:44 31.20725 125.44879 38125 ft 422 kts 210°
2026-05-08 06:45 31.15213 125.42585 38120 ft 423 kts 210°
2026-05-08 06:45 31.09667 125.40281 38126 ft 423 kts 210°
2026-05-08 06:46 31.04132 125.37983 38129 ft 423 kts 210°
2026-05-08 06:46 30.98582 125.35683 38131 ft 424 kts 210°
2026-05-08 06:47 30.93024 125.33381 38128 ft 424 kts 210°
2026-05-08 06:47 30.87474 125.31086 38127 ft 424 kts 210°
2026-05-08 06:48 30.81893 125.28781 38128 ft 424 kts 210°
2026-05-08 06:48 30.76336 125.26488 38127 ft 425 kts 210°
2026-05-08 06:49 30.70783 125.24200 38128 ft 425 kts 210°
2026-05-08 06:49 30.65215 125.21909 38135 ft 425 kts 210°
2026-05-08 06:50 30.59646 125.19620 38133 ft 425 kts 209°
2026-05-08 06:50 30.54108 125.17347 38129 ft 425 kts 209°
2026-05-08 06:51 30.48478 125.15038 38129 ft 426 kts 209°
2026-05-08 06:51 30.42941 125.12770 38136 ft 426 kts 209°
2026-05-08 06:52 30.37307 125.10464 38128 ft 426 kts 209°
2026-05-08 06:52 30.31721 125.08181 38131 ft 426 kts 209°
2026-05-08 06:53 30.26117 125.05894 38127 ft 426 kts 209°
2026-05-08 06:53 30.20562 125.03629 38122 ft 426 kts 209°
2026-05-08 06:54 30.14955 125.01345 38126 ft 426 kts 209°
2026-05-08 06:54 30.09410 124.99090 38125 ft 426 kts 209°
2026-05-08 06:55 30.03784 124.96804 38123 ft 426 kts 209°
2026-05-08 06:55 29.98204 124.94528 38119 ft 425 kts 210°
2026-05-08 06:56 29.92657 124.92148 38118 ft 425 kts 211°
2026-05-08 06:56 29.87168 124.89787 38124 ft 425 kts 210°
2026-05-08 06:57 29.81582 124.87401 38117 ft 425 kts 210°
2026-05-08 06:57 29.76033 124.85037 38116 ft 425 kts 210°
2026-05-08 06:58 29.70453 124.82664 38123 ft 426 kts 210°
2026-05-08 06:58 29.64950 124.80326 38120 ft 426 kts 210°
2026-05-08 06:59 29.59375 124.77960 38124 ft 426 kts 210°
2026-05-08 06:59 29.53823 124.75607 38121 ft 426 kts 210°
2026-05-08 07:00 29.48252 124.73249 38127 ft 427 kts 210°
2026-05-08 07:00 29.42655 124.70882 38126 ft 427 kts 210°
2026-05-08 07:01 29.37111 124.68540 38125 ft 427 kts 210°
2026-05-08 07:01 29.31535 124.66188 38115 ft 427 kts 210°
2026-05-08 07:02 29.25941 124.63831 38118 ft 428 kts 210°
2026-05-08 07:02 29.20332 124.61470 38118 ft 428 kts 210°
2026-05-08 07:03 29.14741 124.59120 38116 ft 428 kts 210°
2026-05-08 07:03 29.09183 124.56786 38116 ft 429 kts 210°
2026-05-08 07:04 29.03655 124.54467 38113 ft 429 kts 210°
2026-05-08 07:04 28.97997 124.52047 38114 ft 425 kts 213°
2026-05-08 07:05 28.92839 124.48978 38117 ft 414 kts 221°
2026-05-08 07:05 28.88135 124.45238 38113 ft 411 kts 224°
2026-05-08 07:06 28.83473 124.41478 38120 ft 411 kts 224°
2026-05-08 07:06 28.78808 124.37734 38126 ft 412 kts 224°
2026-05-08 07:07 28.74109 124.33968 38135 ft 412 kts 224°
2026-05-08 07:07 28.69436 124.30227 38134 ft 412 kts 224°
2026-05-08 07:08 28.64728 124.26461 38135 ft 413 kts 224°
2026-05-08 07:08 28.60028 124.22707 38126 ft 413 kts 224°
2026-05-08 07:09 28.55330 124.18957 38129 ft 413 kts 224°
2026-05-08 07:09 28.50621 124.15203 38128 ft 413 kts 224°
2026-05-08 07:10 28.45930 124.11468 38122 ft 413 kts 224°
2026-05-08 07:10 28.41192 124.07700 38123 ft 414 kts 224°
2026-05-08 07:11 28.36499 124.03971 38124 ft 414 kts 224°
2026-05-08 07:11 28.31679 124.00370 38121 ft 420 kts 218°
2026-05-08 07:12 28.26315 123.97493 38111 ft 428 kts 212°
2026-05-08 07:12 28.20847 123.94895 38114 ft 428 kts 212°
2026-05-08 07:13 28.15361 123.92269 38105 ft 428 kts 212°
2026-05-08 07:13 28.09879 123.89647 38103 ft 429 kts 212°
2026-05-08 07:14 28.04358 123.87008 38100 ft 429 kts 212°
2026-05-08 07:14 27.98841 123.84376 38100 ft 430 kts 212°
2026-05-08 07:15 27.93350 123.81758 38102 ft 430 kts 212°
2026-05-08 07:15 27.87818 123.79125 38102 ft 431 kts 212°
2026-05-08 07:16 27.82295 123.76498 38100 ft 432 kts 212°
2026-05-08 07:16 27.76759 123.73868 38100 ft 433 kts 212°
2026-05-08 07:17 27.71225 123.71242 38097 ft 433 kts 212°
2026-05-08 07:17 27.65650 123.68600 38093 ft 434 kts 212°
2026-05-08 07:18 27.60359 123.65544 38099 ft 424 kts 221°
2026-05-08 07:18 27.55560 123.61741 38100 ft 420 kts 224°
2026-05-08 07:19 27.50832 123.57894 38096 ft 421 kts 224°
2026-05-08 07:19 27.46863 123.54680 38099 ft 421 kts 224°
2026-05-08 07:20 27.41294 123.50176 38099 ft 422 kts 224°
2026-05-08 07:20 27.36572 123.46360 38098 ft 422 kts 224°
2026-05-08 07:21 27.31774 123.42487 38096 ft 423 kts 224°
2026-05-08 07:21 27.27022 123.38655 38095 ft 423 kts 224°
2026-05-08 07:22 27.23020 123.35431 38084 ft 423 kts 224°
2026-05-08 07:22 27.18222 123.31570 38081 ft 422 kts 224°
2026-05-08 07:23 27.13465 123.27746 38088 ft 422 kts 224°
2026-05-08 07:23 27.08693 123.23913 38082 ft 423 kts 223°
2026-05-08 07:24 27.03907 123.20073 38072 ft 423 kts 223°
2026-05-08 07:24 26.99096 123.16216 38074 ft 424 kts 223°
2026-05-08 07:25 26.94296 123.12370 38080 ft 425 kts 223°
2026-05-08 07:26 26.87092 123.06612 38079 ft 425 kts 223°
2026-05-08 07:26 26.82269 123.02762 38071 ft 426 kts 223°
2026-05-08 07:27 26.77466 122.98933 38072 ft 426 kts 223°
2026-05-08 07:27 26.72632 122.95094 38070 ft 426 kts 223°
2026-05-08 07:28 26.67768 122.91237 38069 ft 427 kts 223°
2026-05-08 07:28 26.62922 122.87396 38066 ft 427 kts 223°
2026-05-08 07:29 26.58077 122.83560 38063 ft 428 kts 223°
2026-05-08 07:29 26.53228 122.79725 38066 ft 429 kts 223°
2026-05-08 07:30 26.48349 122.75857 38059 ft 429 kts 223°
2026-05-08 07:30 26.43493 122.72011 38061 ft 428 kts 223°
2026-05-08 07:31 26.38647 122.68177 38054 ft 429 kts 223°
2026-05-08 07:31 26.33780 122.64332 38053 ft 430 kts 223°
2026-05-08 07:32 26.28896 122.60477 38049 ft 430 kts 223°
2026-05-08 07:32 26.24018 122.56631 38045 ft 430 kts 223°
2026-05-08 07:33 26.19141 122.52789 38041 ft 431 kts 223°
2026-05-08 07:33 26.14247 122.48939 38044 ft 431 kts 223°
2026-05-08 07:34 26.09335 122.45087 38039 ft 432 kts 223°
2026-05-08 07:34 26.04425 122.41239 38045 ft 432 kts 223°
2026-05-08 07:35 25.99489 122.37375 38036 ft 433 kts 223°
2026-05-08 07:35 25.94578 122.33534 38040 ft 433 kts 223°
2026-05-08 07:36 25.89651 122.29685 38039 ft 433 kts 223°
2026-05-08 07:36 25.84713 122.25830 38049 ft 434 kts 222°
2026-05-08 07:37 25.79773 122.21979 38048 ft 435 kts 222°
2026-05-08 07:37 25.74839 122.18136 38044 ft 436 kts 222°
2026-05-08 07:38 25.69877 122.14276 38037 ft 436 kts 222°
2026-05-08 07:38 25.64911 122.10414 38038 ft 436 kts 223°
2026-05-08 07:39 25.60335 122.06127 38037 ft 427 kts 232°
2026-05-08 07:39 25.56396 122.01223 38031 ft 423 kts 236°
2026-05-08 07:40 25.52557 121.96325 38025 ft 424 kts 236°
2026-05-08 07:40 25.48655 121.91373 38026 ft 425 kts 235°
2026-05-08 07:41 25.44789 121.86472 38021 ft 425 kts 235°
2026-05-08 07:41 25.41101 121.81797 38016 ft 425 kts 235°
2026-05-08 07:42 25.37206 121.76869 38002 ft 423 kts 236°
2026-05-08 07:42 25.33348 121.71988 37991 ft 421 kts 235°
2026-05-08 07:43 25.29460 121.67071 38009 ft 427 kts 235°
2026-05-08 07:43 25.25556 121.62146 38008 ft 426 kts 235°
2026-05-08 07:44 25.21663 121.57239 38011 ft 426 kts 235°
2026-05-08 07:44 25.17772 121.52343 38014 ft 427 kts 235°
2026-05-08 07:45 25.13926 121.47394 38023 ft 426 kts 236°
2026-05-08 07:45 25.10061 121.42349 38011 ft 426 kts 236°
2026-05-08 07:46 25.06229 121.37372 38019 ft 427 kts 236°
2026-05-08 07:46 25.02440 121.32467 38021 ft 427 kts 236°
2026-05-08 07:47 24.98608 121.27515 38020 ft 427 kts 236°
2026-05-08 07:47 24.94685 121.22449 38011 ft 427 kts 236°
2026-05-08 07:48 24.90873 121.17532 38006 ft 427 kts 236°
2026-05-08 07:48 24.86979 121.12513 37995 ft 427 kts 236°
2026-05-08 07:49 24.83115 121.07539 37988 ft 428 kts 236°
2026-05-08 07:49 24.79284 121.02608 37989 ft 429 kts 236°
2026-05-08 07:50 24.75445 120.97672 37985 ft 429 kts 236°
2026-05-08 07:50 24.71472 120.92568 37991 ft 431 kts 236°
2026-05-08 07:51 24.67570 120.87563 37980 ft 429 kts 236°
2026-05-08 07:51 24.63677 120.82573 37976 ft 430 kts 236°
2026-05-08 07:52 24.59772 120.77573 37974 ft 430 kts 235°
2026-05-08 07:52 24.55868 120.72602 37967 ft 431 kts 233°
2026-05-08 07:53 24.51728 120.67867 37964 ft 433 kts 232°
2026-05-08 07:53 24.47549 120.63096 37963 ft 433 kts 232°
2026-05-08 07:54 24.43380 120.58340 37967 ft 433 kts 232°
2026-05-08 07:54 24.39198 120.53575 37966 ft 433 kts 232°
2026-05-08 07:55 24.34998 120.48796 37963 ft 433 kts 232°
2026-05-08 07:55 24.30837 120.44065 37960 ft 434 kts 232°
2026-05-08 07:56 24.26639 120.39297 37959 ft 434 kts 232°
2026-05-08 07:56 24.22432 120.34523 37957 ft 435 kts 232°
2026-05-08 07:57 24.18308 120.29838 37960 ft 436 kts 232°
2026-05-08 07:57 24.14020 120.24982 37951 ft 436 kts 232°
2026-05-08 07:58 24.09842 120.20256 37949 ft 437 kts 232°
2026-05-08 07:58 24.05581 120.15441 37951 ft 438 kts 232°
2026-05-08 07:59 24.01358 120.10672 37958 ft 438 kts 232°
2026-05-08 07:59 23.97106 120.05877 37961 ft 439 kts 232°
2026-05-08 08:00 23.92844 120.01077 37959 ft 439 kts 232°
2026-05-08 08:00 23.88575 119.96273 37964 ft 440 kts 232°
2026-05-08 08:01 23.84322 119.91492 37962 ft 440 kts 232°
2026-05-08 08:01 23.80086 119.86735 37961 ft 440 kts 232°
2026-05-08 08:02 23.75774 119.81898 37966 ft 441 kts 232°
2026-05-08 08:02 23.71513 119.77122 37969 ft 441 kts 232°
2026-05-08 08:03 23.67240 119.72338 37976 ft 441 kts 232°
2026-05-08 08:03 23.62954 119.67544 37980 ft 441 kts 232°
2026-05-08 08:04 23.58961 119.62566 37978 ft 434 kts 239°
2026-05-08 08:04 23.55677 119.57062 37975 ft 431 kts 243°
2026-05-08 08:05 23.52550 119.51650 37970 ft 431 kts 243°
2026-05-08 08:05 23.49292 119.46033 37965 ft 431 kts 243°
2026-05-08 08:06 23.46089 119.40518 37956 ft 431 kts 243°
2026-05-08 08:06 23.42893 119.35020 37952 ft 431 kts 243°
2026-05-08 08:07 23.39681 119.29499 37947 ft 431 kts 243°
2026-05-08 08:07 23.36476 119.23997 37947 ft 431 kts 243°
2026-05-08 08:08 23.33284 119.18525 37948 ft 431 kts 243°
2026-05-08 08:08 23.30065 119.13011 37948 ft 432 kts 243°
2026-05-08 08:09 23.26830 119.07475 37952 ft 432 kts 243°
2026-05-08 08:09 23.23607 119.01966 37955 ft 433 kts 243°
2026-05-08 08:10 23.20372 118.96442 37958 ft 433 kts 242°
2026-05-08 08:10 23.17122 118.90898 37960 ft 434 kts 242°
2026-05-08 08:11 23.13892 118.85395 37959 ft 435 kts 242°
2026-05-08 08:11 23.10639 118.79858 37964 ft 435 kts 242°
2026-05-08 08:12 23.07363 118.74290 37964 ft 436 kts 242°
2026-05-08 08:12 23.04104 118.68754 37972 ft 436 kts 242°
2026-05-08 08:13 23.00830 118.63201 37963 ft 436 kts 242°
2026-05-08 08:13 22.97573 118.57682 37959 ft 434 kts 242°
2026-05-08 08:14 22.94330 118.52194 37957 ft 435 kts 242°
2026-05-08 08:14 22.91039 118.46662 37960 ft 434 kts 242°
2026-05-08 08:15 22.87781 118.41194 37963 ft 434 kts 242°
2026-05-08 08:15 22.85033 118.36583 37961 ft 434 kts 242°
2026-05-08 08:16 22.81312 118.30345 37957 ft 434 kts 242°
2026-05-08 08:16 22.78486 118.25611 37956 ft 434 kts 242°
2026-05-08 08:17 22.75207 118.20126 37956 ft 434 kts 242°
2026-05-08 08:17 22.71923 118.14636 37951 ft 434 kts 242°
2026-05-08 08:18 22.68651 118.09173 37952 ft 434 kts 242°
2026-05-08 08:18 22.65365 118.03694 37947 ft 434 kts 242°
2026-05-08 08:19 22.62061 117.98187 37946 ft 434 kts 242°
2026-05-08 08:19 22.58784 117.92721 37943 ft 434 kts 242°
2026-05-08 08:20 22.55523 117.87221 37959 ft 434 kts 243°
2026-05-08 08:20 22.52332 117.81844 37970 ft 434 kts 243°
2026-05-08 08:21 22.48986 117.76222 37952 ft 435 kts 242°
2026-05-08 08:21 22.45707 117.70718 37959 ft 435 kts 242°
2026-05-08 08:22 22.42447 117.65255 37954 ft 435 kts 242°
2026-05-08 08:22 22.39161 117.59750 37956 ft 436 kts 242°
2026-05-08 08:23 22.35932 117.54216 37946 ft 433 kts 247°
2026-05-08 08:23 22.33824 117.48231 37945 ft 423 kts 261°
2026-05-08 08:24 22.33182 117.41967 37946 ft 416 kts 273°
2026-05-08 08:24 22.33093 117.35725 37950 ft 417 kts 272°
2026-05-08 08:25 22.32974 117.29451 37945 ft 418 kts 272°
2026-05-08 08:25 22.32856 117.23183 37957 ft 418 kts 272°